QPF
0.00 0.00 0.01 0.01 0.02 0.01 0.00 0.00 0.00 0.00 0.00 0.00 0.00 0.00 0.00 0.00 0.00 0.00 0.00 0.00 0.00 0.00 0.00 0.00 0.00 0.00 0.01 0.00 0.00 0.00 0.00 0.00 0.00 0.00 0.00 0.00 0.00 0.00 0.00 0.01 0.00 0.00 0.00 0.00
0.00 0.00 0.00 0.02 0.04 0.01 0.00 0.00 0.00 0.00 0.00 0.00 0.00 0.00 0.00 0.00 0.00 0.00 0.00 0.00 0.00 0.00 0.00 0.00 0.00 0.00 0.00 0.00 0.00 0.00 0.00 0.00 0.00 0.00 0.00 0.00 0.00 0.00 0.00 0.00 0.00 0.00 0.00 0.00
0.00 0.00 0.00 0.00 0.01 0.03 0.01 0.00 0.00 0.00 0.00 0.00 0.00 0.00 0.00 0.00 0.00 0.00 0.00 0.00 0.00 0.00 0.00 0.00 0.00 0.00 0.00 0.00 0.00 0.00 0.00 0.00 0.00 0.00 0.00 0.00 0.00 0.00 0.00 0.00 0.00 0.00 0.00 0.00
0.00 0.00 0.00 0.00 0.00 0.01 0.00 0.00 0.00 0.00 0.00 0.00 0.00 0.00 0.00 0.00 0.00 0.00 0.00 0.00 0.00 0.00 0.00 0.00 0.00 0.00 0.00 0.00 0.00 0.00 0.00 0.00 0.00 0.00 0.00 0.00 0.00 0.00 0.00 0.00 0.00 0.00 0.00 0.00
0.00 0.00 0.00 0.00 0.00 0.00 0.00 0.00 0.00 0.00 0.00 0.00 0.00 0.00 0.00 0.00 0.00 0.00 0.00 0.00 0.00 0.00 0.00 0.00 0.00 0.00 0.00 0.00 0.00 0.00 0.00 0.00 0.00 0.00 0.00 0.00 0.00 0.00 0.00 0.00 0.00 0.00 0.00 0.00
0.00 0.00 0.00 0.00 0.00 0.00 0.00 0.00 0.00 0.00 0.00 0.00 0.00 0.00 0.00 0.00 0.00 0.00 0.00 0.00 0.00 0.00 0.00 0.00 0.00 0.00 0.00 0.00 0.00 0.00 0.00 0.00 0.00 0.00 0.00 0.00 0.00 0.00 0.00 0.00 0.00 0.00 0.00 0.00
0.00 0.00 0.00 0.00 0.00 0.00 0.00 0.00 0.00 0.00 0.00 0.00 0.00 0.00 0.00 0.00 0.00 0.00 0.00 0.00 0.01 0.00 0.00 0.00 0.00 0.00 0.00 0.00 0.00 0.00 0.00 0.00 0.00 0.00 0.00 0.00 0.00 0.00 0.00 0.00 0.00 0.00 0.00 0.00
0.00 0.00 0.00 0.00 0.00 0.00 0.00 0.00 0.00 0.00 0.00 0.00 0.00 0.00 0.00 0.00 0.00 0.00 0.00 0.00 0.00 0.00 0.00 0.00 0.00 0.00 0.00 0.00 0.00 0.00 0.00 0.00 0.00 0.00 0.00 0.00 0.00 0.00 0.00 0.00 0.00 0.00 0.00 0.00
0.00 0.00 0.00 0.00 0.00 0.00 0.00 0.00 0.00 0.00 0.00 0.00 0.00 0.00 0.00 0.00 0.00 0.00 0.00 0.00 0.00 0.00 0.00 0.00 0.00 0.00 0.00 0.00 0.00 0.00 0.00 0.00 0.00 0.00 0.00 0.00 0.00 0.00 0.00 0.00 0.00 0.00 0.00 0.00
0.01 0.01 0.01 0.00 0.01 0.01 0.01 0.00 0.00 0.00 0.00 0.00 0.00 0.00 0.00 0.00 0.00 0.00 0.00 0.00 0.00 0.00 0.00 0.00 0.00 0.00 0.00 0.00 0.00 0.00 0.00 0.00 0.00 0.00 0.00 0.00 0.00 0.00 0.00 0.00 0.00 0.00 0.00 0.00
0.00 0.00 0.00 0.00 0.01 0.01 0.03 0.00 0.00 0.00 0.00 0.00 0.00 0.00 0.00 0.00 0.00 0.00 0.00 0.00 0.00 0.00 0.00 0.00 0.00 0.00 0.00 0.00 0.00 0.00 0.00 0.00 0.00 0.00 0.00 0.00 0.00 0.00 0.00 0.00 0.00 0.00 0.00 0.00
0.00 0.00 0.00 0.00 0.00 0.01 0.03 0.01 0.00 0.01 0.01 0.00 0.00 0.00 0.00 0.00 0.00 0.00 0.00 0.00 0.00 0.00 0.00 0.00 0.00 0.01 0.00 0.00 0.00 0.00 0.00 0.00 0.01 0.00 0.00 0.00 0.00 0.00 0.00 0.00 0.00 0.00 0.00 0.00
0.00 0.00 0.00 0.01 0.01 0.01 0.02 0.02 0.02 0.01 0.00 0.00 0.00 0.00 0.00 0.00 0.00 0.00 0.00 0.00 0.00 0.00 0.00 0.01 0.00 0.00 0.00 0.00 0.00 0.00 0.00 0.00 0.00 0.00 0.00 0.00 0.00 0.00 0.00 0.00 0.00 0.00 0.00 0.00
0.00 0.00 0.01 0.00 0.01 0.01 0.01 0.01 0.01 0.02 0.01 0.00 0.00 0.00 0.00 0.00 0.00 0.00 0.00 0.00 0.00 0.00 0.00 0.00 0.01 0.01 0.01 0.01 0.00 0.00 0.00 0.00 0.00 0.00 0.00 0.00 0.00 0.00 0.00 0.00 0.00 0.00 0.00 0.00
0.00 0.00 0.00 0.01 0.01 0.01 0.02 0.01 0.00 0.01 0.01 0.00 0.00 0.00 0.00 0.00 0.00 0.00 0.00 0.00 0.00 0.00 0.00 0.00 0.00 0.01 0.01 0.00 0.00 0.00 0.00 0.00 0.00 0.00 0.00 0.00 0.00 0.00 0.00 0.00 0.00 0.00 0.00 0.00
0.00 0.00 0.00 0.00 0.01 0.02 0.01 0.00 0.00 0.00 0.00 0.00 0.00 0.00 0.00 0.00 0.00 0.00 0.00 0.00 0.00 0.00 0.00 0.00 0.00 0.00 0.00 0.00 0.00 0.00 0.00 0.00 0.00 0.00 0.00 0.00 0.00 0.00 0.00 0.00 0.00 0.00 0.00 0.00
0.00 0.00 0.01 0.01 0.01 0.02 0.01 0.00 0.00 0.00 0.00 0.00 0.00 0.00 0.00 0.00 0.00 0.00 0.00 0.00 0.00 0.00 0.00 0.00 0.00 0.00 0.00 0.00 0.00 0.00 0.00 0.00 0.00 0.00 0.00 0.00 0.00 0.00 0.00 0.00 0.00 0.00 0.00 0.00
0.00 0.00 0.01 0.00 0.01 0.00 0.00 0.00 0.00 0.00 0.00 0.00 0.00 0.00 0.00 0.00 0.00 0.00 0.00 0.00 0.00 0.00 0.00 0.00 0.00 0.00 0.00 0.00 0.00 0.00 0.00 0.00 0.00 0.00 0.00 0.00 0.00 0.00 0.00 0.00 0.00 0.00 0.00 0.00
0.00 0.00 0.00 0.00 0.00 0.00 0.00 0.00 0.00 0.00 0.00 0.00 0.00 0.00 0.00 0.00 0.00 0.00 0.00 0.00 0.00 0.00 0.00 0.00 0.00 0.00 0.00 0.00 0.00 0.00 0.00 0.00 0.00 0.00 0.00 0.00 0.00 0.00 0.00 0.00 0.00 0.00 0.00 0.00
0.00 0.00 0.00 0.00 0.00 0.00 0.00 0.00 0.00 0.00 0.00 0.00 0.00 0.00 0.00 0.00 0.00 0.00 0.00 0.00 0.00 0.00 0.00 0.00 0.00 0.00 0.00 0.00 0.00 0.00 0.00 0.00 0.00 0.00 0.00 0.00 0.00 0.00 0.00 0.00 0.00 0.00 0.00 0.00
0.00 0.00 0.00 0.00 0.00 0.00 0.00 0.00 0.00 0.00 0.00 0.00 0.00 0.00 0.00 0.00 0.00 0.00 0.00 0.00 0.00 0.00 0.00 0.00 0.00 0.00 0.00 0.00 0.00 0.00 0.00 0.00 0.00 0.00 0.00 0.00 0.00 0.00 0.00 0.00 0.00 0.00 0.00 0.00
0.00 0.00 0.00 0.00 0.00 0.00 0.00 0.00 0.00 0.00 0.00 0.00 0.00 0.00 0.00 0.00 0.00 0.00 0.00 0.00 0.00 0.00 0.00 0.00 0.00 0.00 0.00 0.00 0.00 0.00 0.00 0.00 0.00 0.00 0.00 0.00 0.00 0.00 0.00 0.00 0.00 0.00 0.00 0.00
0.00 0.00 0.00 0.00 0.00 0.00 0.00 0.00 0.00 0.00 0.00 0.00 0.00 0.00 0.00 0.00 0.00 0.00 0.00 0.00 0.00 0.00 0.00 0.00 0.00 0.00 0.00 0.00 0.00 0.00 0.00 0.00 0.00 0.00 0.00 0.00 0.00 0.00 0.00 0.00 0.00 0.00 0.00 0.00
0.00 0.00 0.00 0.00 0.00 0.00 0.00 0.00 0.00 0.00 0.00 0.00 0.00 0.00 0.00 0.00 0.00 0.00 0.00 0.00 0.00 0.00 0.00 0.00 0.00 0.00 0.00 0.00 0.00 0.00 0.00 0.00 0.00 0.00 0.00 0.00 0.00 0.00 0.00 0.00 0.00 0.00 0.00 0.00
0.00 0.00 0.00 0.00 0.00 0.00 0.00 0.00 0.00 0.00 0.00 0.00 0.00 0.00 0.00 0.00 0.00 0.00 0.00 0.00 0.00 0.00 0.00 0.00 0.00 0.00 0.00 0.00 0.00 0.00 0.00 0.00 0.00 0.00 0.00 0.00 0.00 0.00 0.00 0.00 0.00 0.00 0.00 0.00
0.00 0.00 0.00 0.00 0.00 0.00 0.00 0.00 0.00 0.00 0.00 0.00 0.00 0.00 0.00 0.00 0.00 0.00 0.00 0.00 0.00 0.00 0.00 0.00 0.00 0.00 0.00 0.00 0.00 0.00 0.00 0.00 0.00 0.00 0.00 0.00 0.00 0.00 0.00 0.00 0.00 0.00 0.00 0.00
0.00 0.00 0.00 0.00 0.00 0.00 0.00 0.00 0.00 0.00 0.00 0.00 0.00 0.00 0.00 0.00 0.00 0.00 0.00 0.00 0.00 0.00 0.00 0.00 0.00 0.00 0.00 0.00 0.00 0.00 0.00 0.00 0.00 0.00 0.00 0.00 0.00 0.00 0.00 0.00 0.00 0.00 0.00 0.00
MSLP
1019.92 1019.55 1018.85 1018.30 1018.10 1018.34 1018.73 1019.35 1019.79 1019.69 1019.45 1020.12 1020.45 1020.35 1018.66 1017.53 1016.50 1016.18 1016.03 1016.00 1015.97 1015.86 1015.56 1015.00 1014.61 1013.68 1013.06 1013.03 1013.68 1013.44 1013.47 1012.84 1011.70 1010.51 1008.15 1007.41 1007.32 1007.96 1007.93 1007.20 1006.17 1004.98 1003.56 1000.41
1020.41 1019.82 1019.15 1018.50 1018.15 1018.35 1018.90 1019.28 1019.55 1019.32 1019.62 1020.09 1020.19 1019.20 1018.19 1017.15 1016.43 1016.08 1015.97 1015.83 1015.63 1015.54 1015.72 1015.46 1014.40 1013.59 1012.87 1012.98 1013.28 1013.59 1013.65 1013.46 1012.49 1010.77 1009.30 1008.34 1008.37 1008.08 1008.42 1008.37 1007.10 1005.09 1003.95 1001.33
1020.62 1020.03 1019.46 1019.01 1018.36 1018.03 1018.64 1019.50 1019.95 1019.85 1020.09 1020.16 1020.15 1019.81 1018.68 1017.53 1016.61 1016.37 1015.90 1015.72 1015.62 1015.82 1015.88 1015.48 1014.92 1013.91 1013.23 1013.16 1013.18 1013.52 1013.87 1013.81 1013.65 1012.85 1011.74 1010.98 1010.11 1008.48 1008.50 1008.63 1007.69 1005.92 1004.04 1002.35
1020.71 1020.33 1020.02 1019.20 1018.44 1018.41 1018.90 1020.01 1020.45 1020.66 1020.64 1020.40 1020.65 1020.33 1019.49 1018.36 1017.73 1017.00 1016.42 1016.44 1016.10 1016.59 1016.42 1015.75 1015.03 1014.30 1013.90 1013.59 1013.39 1013.69 1014.32 1013.80 1013.52 1012.95 1012.41 1011.76 1010.77 1009.78 1008.19 1008.08 1007.39 1006.64 1004.05 1003.38
1020.98 1020.51 1020.19 1019.91 1019.32 1019.07 1019.16 1020.15 1020.64 1021.11 1020.71 1020.40 1020.68 1020.35 1019.53 1018.58 1017.70 1017.18 1016.75 1016.67 1016.39 1016.29 1016.49 1016.04 1015.60 1015.40 1014.97 1014.51 1013.91 1013.84 1014.12 1013.83 1013.59 1012.90 1012.53 1011.91 1010.74 1009.20 1008.39 1007.50 1006.70 1005.85 1005.17 1003.33
1021.02 1020.65 1020.46 1020.32 1019.93 1019.55 1019.88 1020.61 1020.85 1020.58 1020.04 1020.07 1020.27 1019.69 1019.07 1018.52 1018.11 1016.77 1016.46 1016.36 1016.46 1016.20 1015.65 1015.56 1015.28 1015.20 1014.97 1014.60 1014.45 1014.36 1014.42 1014.17 1014.06 1012.75 1012.55 1012.00 1010.49 1008.44 1007.88 1007.68 1007.65 1007.12 1006.56 1005.84
1021.14 1020.90 1020.70 1020.41 1020.40 1020.46 1020.49 1020.88 1020.67 1020.78 1020.00 1019.83 1019.56 1019.03 1019.03 1018.68 1018.32 1017.46 1016.50 1016.30 1016.05 1015.94 1015.69 1015.53 1015.14 1014.73 1014.25 1013.91 1013.72 1014.09 1014.08 1014.24 1014.29 1013.62 1013.25 1012.37 1009.25 1008.59 1008.30 1008.34 1008.77 1008.60 1008.26 1007.51
1021.28 1021.15 1020.77 1020.64 1020.43 1020.48 1021.07 1021.04 1021.15 1020.87 1019.94 1019.56 1019.20 1019.12 1018.80 1018.31 1018.03 1017.62 1016.87 1016.13 1016.00 1015.87 1015.99 1016.07 1015.61 1015.01 1014.49 1013.94 1013.82 1013.81 1013.87 1014.27 1014.10 1014.02 1013.88 1011.99 1009.88 1009.63 1009.52 1009.42 1009.66 1009.55 1009.16 1008.59
1021.25 1020.94 1020.81 1020.44 1020.29 1020.02 1020.53 1020.58 1020.56 1020.80 1020.63 1019.51 1019.02 1019.02 1018.75 1018.64 1018.17 1017.57 1016.79 1016.36 1016.04 1016.16 1016.31 1016.61 1016.50 1016.09 1015.31 1015.06 1014.74 1014.26 1014.03 1013.94 1014.23 1014.25 1013.96 1012.97 1011.48 1010.61 1009.79 1009.85 1010.39 1010.55 1010.29 1009.79
1021.16 1020.91 1020.53 1020.20 1020.02 1019.97 1020.14 1020.44 1020.35 1020.60 1020.26 1018.98 1019.00 1018.80 1018.78 1018.59 1018.52 1018.24 1017.61 1017.43 1016.90 1016.70 1016.84 1017.04 1016.65 1016.17 1015.53 1015.61 1015.63 1015.18 1014.97 1014.50 1014.50 1014.18 1014.03 1012.99 1012.19 1011.31 1010.46 1011.39 1012.60 1011.94 1011.76 1011.22
1021.05 1020.80 1020.43 1020.18 1019.99 1019.71 1019.65 1019.45 1019.39 1019.79 1019.67 1018.55 1018.10 1018.15 1018.35 1018.12 1018.20 1018.31 1018.06 1018.04 1017.79 1017.39 1017.22 1016.83 1016.26 1015.97 1015.51 1015.69 1015.49 1015.03 1014.88 1014.80 1014.73 1014.65 1014.45 1014.00 1012.96 1012.38 1013.32 1014.79 1013.88 1013.63 1013.12 1012.57
1020.80 1020.39 1020.09 1019.76 1019.52 1019.20 1019.07 1019.11 1018.61 1018.72 1018.81 1018.14 1017.60 1017.20 1016.79 1016.82 1017.01 1017.70 1018.04 1018.08 1017.92 1017.46 1017.05 1016.94 1016.43 1016.03 1015.75 1015.67 1015.89 1015.10 1015.14 1014.91 1014.83 1014.94 1014.60 1014.47 1015.32 1016.05 1016.55 1016.23 1015.73 1015.49 1014.90 1014.11
1020.12 1019.71 1019.41 1019.20 1018.87 1018.67 1018.49 1018.57 1018.64 1018.82 1018.44 1017.90 1017.66 1016.62 1016.34 1016.11 1016.58 1016.79 1017.65 1017.87 1017.35 1017.31 1016.95 1016.92 1016.58 1016.25 1016.10 1016.13 1015.78 1016.00 1015.79 1015.44 1015.84 1015.83 1016.30 1016.40 1017.37 1017.73 1017.90 1017.76 1017.55 1017.18 1016.62 1015.67
1020.00 1019.62 1019.12 1018.56 1018.05 1017.92 1018.03 1018.32 1018.15 1018.43 1018.13 1017.81 1017.12 1016.74 1016.85 1016.92 1016.94 1017.13 1017.31 1017.44 1017.48 1017.36 1017.21 1016.84 1016.50 1016.15 1015.42 1015.67 1016.01 1017.01 1018.31 1017.43 1018.06 1017.47 1018.06 1018.31 1018.40 1019.34 1019.82 1019.27 1018.85 1018.37 1017.69 1016.84
1019.43 1018.93 1018.44 1018.25 1017.98 1017.62 1017.51 1017.50 1017.43 1017.19 1018.13 1017.71 1017.39 1017.15 1017.48 1017.40 1017.50 1017.60 1017.66 1017.72 1017.77 1017.56 1017.24 1016.80 1016.28 1015.53 1015.53 1015.76 1016.93 1019.93 1021.16 1021.69 1021.46 1020.92 1021.51 1021.60 1020.49 1020.79 1021.02 1020.63 1020.14 1019.60 1018.78 1017.60
1018.62 1018.02 1017.58 1017.41 1017.48 1017.10 1017.40 1017.31 1017.60 1017.55 1017.38 1017.76 1017.92 1018.14 1018.21 1017.94 1017.79 1017.77 1017.84 1017.86 1017.88 1017.73 1017.11 1016.49 1015.88 1015.24 1015.75 1016.78 1019.66 1022.80 1023.46 1023.74 1023.74 1023.36 1023.11 1022.53 1022.15 1021.93 1021.92 1021.73 1021.19 1020.53 1019.82 1019.05
1018.23 1017.49 1016.86 1016.59 1016.50 1016.81 1017.59 1018.24 1018.10 1017.79 1017.78 1018.22 1018.55 1018.76 1018.57 1018.42 1018.25 1018.09 1018.10 1017.78 1017.76 1017.57 1017.09 1016.54 1016.15 1016.01 1016.62 1019.28 1022.49 1024.18 1024.56 1024.60 1024.56 1024.55 1023.89 1023.14 1023.27 1023.44 1023.18 1022.71 1021.98 1021.32 1020.68 1020.09
1018.04 1017.37 1016.75 1016.63 1016.86 1017.39 1018.05 1018.36 1017.85 1018.00 1018.32 1018.74 1019.32 1019.50 1019.27 1018.86 1019.06 1018.93 1018.51 1018.32 1017.93 1017.56 1017.11 1016.77 1016.93 1018.12 1020.14 1022.87 1024.84 1025.39 1025.53 1025.21 1024.96 1025.23 1025.22 1025.28 1024.81 1024.36 1023.83 1023.33 1022.53 1021.75 1021.20 1020.62
1017.56 1017.09 1017.04 1017.37 1017.91 1018.44 1018.77 1018.31 1018.49 1018.72 1019.26 1019.17 1019.70 1020.19 1020.02 1019.29 1019.29 1019.18 1018.92 1018.74 1018.66 1017.88 1017.72 1017.71 1018.42 1021.16 1023.64 1025.43 1025.96 1026.27 1026.44 1026.57 1026.39 1025.88 1025.67 1025.55 1025.15 1024.66 1024.15 1023.70 1023.04 1022.63 1022.00 1021.36
1017.43 1017.37 1017.58 1018.36 1019.18 1018.85 1018.92 1018.84 1018.90 1018.92 1019.29 1019.51 1020.11 1020.24 1020.44 1020.31 1020.15 1019.74 1019.70 1019.40 1019.16 1018.79 1018.84 1018.87 1020.76 1023.70 1025.77 1026.51 1026.89 1027.05 1027.05 1026.92 1026.66 1026.29 1025.90 1025.68 1025.33 1024.99 1024.57 1024.15 1023.72 1023.18 1022.53 1021.85
1018.51 1018.94 1019.03 1019.32 1019.22 1019.35 1019.59 1019.90 1020.07 1020.26 1019.86 1019.84 1020.14 1020.54 1020.90 1020.59 1020.91 1020.71 1020.38 1020.34 1019.76 1019.63 1019.64 1019.94 1022.25 1024.95 1026.68 1027.35 1027.47 1027.51 1027.40 1027.19 1026.92 1026.84 1026.65 1026.36 1026.01 1025.52 1024.98 1024.46 1023.98 1023.48 1022.82 1022.19
1019.21 1019.55 1019.46 1019.62 1019.79 1020.46 1021.08 1021.59 1021.65 1021.27 1020.89 1020.64 1020.80 1020.97 1021.03 1020.93 1020.94 1021.17 1020.85 1021.02 1020.75 1020.68 1020.57 1021.47 1024.25 1026.78 1027.74 1028.00 1028.10 1028.09 1027.97 1027.71 1027.44 1027.26 1027.05 1026.77 1026.37 1025.94 1025.43 1024.92 1024.41 1023.97 1023.43 1022.80
1019.25 1019.63 1019.94 1020.28 1021.20 1021.82 1022.56 1022.94 1022.56 1022.26 1021.93 1021.63 1021.35 1021.37 1021.24 1021.04 1021.33 1021.51 1021.79 1021.74 1021.61 1021.32 1022.48 1024.48 1026.81 1028.13 1028.57 1028.73 1028.83 1028.74 1028.64 1028.44 1028.25 1028.02 1027.75 1027.44 1027.06 1026.59 1026.08 1025.59 1025.16 1024.62 1024.12 1023.66
1019.61 1020.16 1020.62 1021.37 1022.04 1022.97 1023.47 1023.90 1023.69 1023.46 1023.32 1022.81 1022.10 1021.62 1021.44 1021.48 1021.85 1022.32 1022.59 1022.39 1022.55 1023.39 1024.97 1026.94 1028.56 1029.22 1029.44 1029.46 1029.54 1029.47 1029.45 1029.31 1029.21 1029.00 1028.64 1028.30 1027.90 1027.43 1026.92 1026.46 1026.02 1025.56 1025.09 1024.67
1020.03 1020.92 1022.11 1022.68 1023.13 1023.87 1024.63 1025.01 1024.90 1025.17 1024.90 1024.12 1022.85 1022.06 1021.99 1022.13 1022.52 1022.84 1023.27 1023.70 1024.67 1026.01 1027.44 1028.78 1029.73 1030.09 1030.12 1030.01 1029.97 1030.04 1030.05 1029.99 1029.92 1029.78 1029.53 1029.20 1028.78 1028.31 1027.84 1027.35 1026.87 1026.43 1026.04 1025.58
1021.02 1022.65 1023.42 1024.18 1024.89 1026.02 1026.59 1027.08 1027.12 1026.63 1026.01 1024.96 1024.00 1023.14 1022.95 1023.08 1023.43 1024.23 1025.48 1026.05 1027.27 1028.62 1029.47 1030.23 1030.56 1030.70 1030.67 1030.53 1030.39 1030.35 1030.40 1030.41 1030.40 1030.35 1030.19 1029.92 1029.60 1029.24 1028.81 1028.15 1027.60 1027.12 1026.73 1026.41
1022.89 1024.38 1025.02 1026.13 1027.34 1028.39 1029.04 1029.52 1029.03 1028.05 1027.35 1026.86 1025.64 1024.84 1024.68 1024.50 1025.23 1027.22 1028.39 1029.30 1029.98 1030.20 1030.46 1030.81 1031.07 1031.17 1031.10 1030.89 1030.67 1030.59 1030.61 1030.67 1030.68 1030.68 1030.69 1030.51 1030.06 1029.67 1029.24 1028.84 1028.46 1028.01 1027.59 1027.18
Thickness
5548 5543 5542 5541 5536 5527 5517 5507 5500 5488 5479 5453 5430 5430 5464 5473 5469 5464 5461 5458 5456 5452 5460 5449 5450 5461 5469 5469 5455 5451 5453 5453 5454 5467 5498 5502 5499 5484 5482 5497 5500 5500 5507 5531
5538 5536 5536 5534 5529 5519 5507 5498 5490 5481 5466 5438 5444 5446 5459 5463 5461 5455 5456 5452 5452 5455 5450 5438 5454 5460 5466 5461 5452 5438 5440 5436 5435 5443 5473 5489 5485 5490 5486 5476 5481 5498 5498 5520
5532 5529 5527 5522 5519 5513 5499 5482 5474 5463 5445 5433 5435 5433 5440 5444 5444 5440 5446 5444 5441 5436 5431 5435 5431 5444 5452 5447 5444 5444 5431 5423 5425 5428 5439 5445 5447 5469 5472 5468 5464 5488 5501 5512
5527 5522 5515 5515 5510 5501 5488 5467 5456 5441 5416 5427 5412 5408 5399 5406 5411 5421 5426 5414 5419 5408 5404 5415 5425 5432 5429 5432 5434 5422 5412 5416 5416 5422 5425 5428 5430 5438 5459 5458 5470 5463 5503 5500
5517 5514 5509 5501 5497 5488 5476 5459 5439 5422 5416 5411 5403 5404 5394 5393 5398 5409 5402 5397 5401 5400 5388 5394 5406 5399 5400 5403 5410 5407 5400 5403 5408 5412 5417 5414 5417 5431 5437 5454 5468 5476 5488 5505
5509 5505 5499 5491 5484 5476 5464 5442 5429 5422 5428 5407 5400 5402 5388 5393 5394 5404 5402 5395 5385 5388 5396 5398 5397 5395 5394 5400 5390 5394 5391 5390 5388 5406 5407 5402 5403 5428 5440 5444 5435 5449 5460 5474
5503 5496 5488 5482 5471 5460 5449 5430 5421 5413 5414 5405 5396 5391 5393 5390 5386 5387 5395 5387 5382 5384 5382 5379 5382 5384 5388 5390 5390 5388 5385 5384 5383 5385 5359 5346 5420 5423 5426 5420 5412 5415 5423 5437
5495 5486 5481 5470 5461 5450 5435 5421 5407 5400 5404 5391 5391 5379 5382 5386 5383 5377 5377 5382 5375 5372 5367 5353 5360 5366 5366 5374 5372 5373 5379 5374 5378 5377 5346 5382 5416 5408 5402 5407 5406 5404 5411 5419
5487 5481 5472 5466 5456 5445 5429 5414 5401 5388 5384 5375 5384 5377 5369 5357 5372 5366 5366 5368 5365 5362 5354 5349 5336 5350 5352 5357 5359 5358 5369 5368 5372 5355 5376 5338 5390 5392 5402 5403 5404 5391 5395 5401
5481 5473 5467 5458 5450 5438 5427 5408 5397 5379 5373 5372 5370 5357 5352 5352 5356 5352 5334 5338 5348 5349 5328 5329 5325 5342 5344 5353 5339 5329 5328 5352 5352 5356 5366 5346 5373 5382 5394 5389 5382 5377 5377 5384
5474 5467 5460 5452 5442 5431 5421 5409 5394 5378 5370 5373 5370 5364 5346 5345 5344 5342 5328 5330 5327 5330 5321 5334 5329 5324 5332 5331 5334 5355 5356 5344 5327 5328 5344 5343 5368 5378 5374 5346 5352 5351 5356 5363
5468 5463 5455 5447 5436 5427 5413 5402 5391 5375 5367 5370 5365 5361 5358 5352 5342 5336 5328 5321 5320 5325 5327 5314 5326 5330 5323 5310 5325 5324 5344 5350 5355 5355 5351 5352 5329 5323 5318 5324 5331 5329 5335 5344
5467 5460 5451 5442 5433 5421 5408 5394 5379 5366 5359 5362 5356 5354 5350 5345 5336 5330 5320 5303 5310 5314 5313 5312 5315 5317 5304 5307 5314 5328 5321 5311 5325 5338 5324 5318 5304 5303 5301 5305 5307 5310 5313 5323
5459 5452 5445 5439 5431 5420 5403 5386 5372 5357 5347 5351 5351 5345 5337 5327 5321 5316 5311 5306 5301 5300 5300 5302 5305 5300 5310 5316 5318 5319 5290 5305 5294 5319 5295 5297 5293 5280 5278 5287 5292 5295 5300 5308
5455 5449 5443 5432 5421 5411 5400 5384 5370 5357 5340 5340 5335 5330 5317 5312 5304 5301 5297 5292 5288 5288 5291 5293 5291 5299 5308 5305 5302 5248 5247 5243 5261 5284 5253 5252 5274 5267 5264 5269 5274 5279 5287 5298
5453 5448 5440 5428 5415 5405 5390 5380 5365 5349 5337 5326 5324 5307 5297 5301 5299 5295 5287 5284 5282 5278 5285 5289 5295 5290 5305 5308 5249 5225 5224 5224 5226 5238 5232 5240 5248 5255 5253 5254 5259 5266 5274 5280
5447 5441 5435 5425 5412 5395 5377 5360 5345 5334 5324 5317 5303 5292 5294 5290 5286 5281 5280 5284 5281 5278 5279 5282 5284 5291 5290 5250 5224 5215 5212 5213 5218 5218 5222 5241 5233 5232 5236 5240 5247 5254 5261 5266
5438 5433 5427 5416 5402 5383 5363 5347 5336 5323 5315 5306 5288 5284 5287 5284 5276 5272 5271 5274 5273 5269 5279 5283 5284 5263 5241 5214 5203 5203 5201 5205 5211 5206 5207 5209 5214 5218 5223 5229 5237 5245 5251 5255
5433 5425 5415 5402 5385 5366 5349 5339 5326 5315 5307 5301 5283 5273 5269 5278 5270 5266 5266 5260 5248 5268 5270 5274 5263 5230 5204 5194 5191 5191 5191 5189 5191 5196 5199 5199 5204 5211 5216 5220 5226 5231 5238 5244
5424 5414 5401 5386 5366 5352 5340 5328 5319 5310 5292 5289 5274 5273 5269 5267 5259 5259 5258 5258 5251 5253 5262 5258 5233 5207 5189 5184 5183 5182 5182 5183 5186 5188 5193 5193 5197 5202 5206 5211 5216 5222 5229 5235
5406 5389 5382 5365 5352 5340 5323 5311 5308 5285 5295 5288 5280 5261 5262 5262 5257 5255 5256 5235 5247 5240 5255 5257 5235 5205 5183 5177 5177 5177 5178 5179 5182 5181 5182 5185 5187 5192 5197 5202 5207 5213 5219 5224
5388 5377 5364 5350 5329 5306 5295 5281 5272 5274 5288 5274 5260 5260 5257 5253 5248 5244 5247 5242 5238 5245 5240 5243 5218 5182 5172 5171 5171 5171 5170 5172 5174 5175 5176 5177 5181 5183 5187 5191 5196 5200 5205 5210
5376 5363 5346 5328 5308 5299 5278 5277 5279 5277 5272 5268 5263 5257 5246 5257 5236 5225 5233 5229 5232 5240 5219 5209 5180 5168 5164 5163 5161 5162 5161 5162 5162 5163 5164 5165 5167 5172 5174 5178 5181 5185 5189 5193
5364 5352 5347 5312 5305 5292 5288 5276 5274 5260 5251 5249 5252 5249 5252 5237 5237 5218 5232 5228 5227 5213 5200 5181 5159 5155 5154 5154 5151 5149 5148 5148 5147 5148 5150 5151 5153 5156 5159 5161 5165 5168 5172 5175
5355 5339 5321 5303 5299 5282 5264 5244 5243 5231 5223 5227 5239 5238 5233 5232 5230 5219 5215 5222 5203 5191 5179 5161 5150 5145 5144 5146 5145 5141 5139 5136 5134 5133 5134 5136 5137 5140 5142 5145 5148 5151 5154 5157
5339 5303 5307 5286 5274 5245 5227 5210 5208 5210 5213 5208 5227 5239 5228 5220 5217 5215 5189 5205 5179 5160 5150 5142 5138 5136 5134 5135 5135 5133 5129 5129 5125 5122 5121 5123 5123 5124 5125 5128 5132 5136 5138 5141
5305 5278 5274 5261 5243 5222 5209 5193 5194 5199 5195 5205 5208 5233 5224 5217 5216 5165 5157 5145 5143 5141 5137 5132 5127 5124 5122 5123 5124 5123 5121 5119 5116 5111 5110 5109 5110 5112 5114 5114 5116 5117 5121 5122